2021-002D (47312 NORAD) Tracking and Keplerian Element Data

This shows tracking and keplerian element data for the satellite.

Feedback or suggestion? Click here.




ElementValue
Catalog47312
Name2021-002D
Epoch Orbit1330
Epoch Day105.63631788
Epoch Year2021
RAAN166.0376
Inclination60.6858
Eccentricity0.0026746
Argument of Perigee11.6402
Mean Anonmoly348.5297
Mean Motion15.22649712
Decay Rate0.00010046
L11 47312U 21002D 21105.63631788 .00010046 00000-0 43534-3 0 9996
L22 47312 60.6858 166.0376 0026746 11.6402 348.5297 15.22649712 13304

Live tracking and technical data element details for 2021-002D (NORAD 47312). 2021-002D can be tracked NOW for your location showing map with azimuth and elevation plus other details from your city location.

Track the satellite on the map from your city or location and see movement details for azimuth, elevation, latitude, longitude, range, height, and movement on the map or in text.







IsCatalogInMostPopularTable: catalog: 47312, numindb: 21
Update: records affected: 1



GetName: 47312 2021-002D

Hit Count: updated at: Fri, 16 Apr 2021 11:08:54 GMT